Flag for Vietnam Weather past 2 weeks in Ho Chi Minh, Vietnam

79 °F

Passing clouds.

Feels Like: 82 °F
Forecast: 77 / 93 °F
Wind: 2 mph from North

Location: Ho Chi Minh

Current Time: Nov 30, 2015 at 1:33:49 AM

Latest Report: Nov 30, 2015 at 1:00 AM

Visibility: 5 mi

Pressure: 29.89 "Hg

Humidity: 89%

Dew point: 75 °F

Location of Ho Chi MinhLocation

Historic Weather in Ho Chi Minh — Graph


Ho Chi Minh temperature yesterday

Maximum temperature yesterday: 93 °F (at 12:00 PM)
Minimum temperature yesterday: 79 °F (at 1:30 AM)
Average temperature yesterday: 84 °F

Past Weeks' High & Low Weather Summary

High95 °F (Nov 16, 1:30 PM)94% (Nov 22, 4:00 PM)29.95 "Hg (Nov 22, 4:00 PM)
Low75 °F (Nov 22, 4:00 PM)36% (Nov 20, 3:00 PM)29.71 "Hg (Nov 21, 2:30 PM)
Average84 °F70%29.82 "Hg
* Reported Midnight between Nov 14 and Nov 15 — Nov 30 12:30 AM, Ho Chi Minh, Weather by CustomWeather, © 2015

Note: Actual official high and low records may vary slightly from our data, if they occured in-between our weather recording intervals... More about our weather records


Ho Chi Minh weather history for previous 24 hours

Time TempWeatherWind HumidityBarometerVisibility
12:30 AM
Mon, Nov 30
79 °FPassing clouds.1 mph89%29.89 "Hg5 mi
12:00 AM81 °FPassing clouds.2 mph84%29.89 "Hg5 mi
11:30 PM
Sun, Nov 29
81 °FPassing clouds.2 mph84%29.89 "Hg5 mi
11:00 PM81 °FPassing clouds.1 mph84%29.92 "Hg5 mi
10:30 PM81 °FPassing clouds.2 mph84%29.92 "Hg5 mi
10:00 PM82 °FPassing clouds.2 mph79%29.92 "Hg4 mi
9:30 PM81 °FPassing clouds.2 mph84%29.92 "Hg4 mi
9:00 PM82 °FPassing clouds.3 mph79%29.92 "Hg4 mi
8:30 PM82 °FPassing clouds.1 mph79%29.92 "Hg4 mi
8:00 PM82 °FLight rain. Passing clouds.3 mph79%29.89 "Hg4 mi
7:30 PM81 °FPassing clouds.5 mph84%29.89 "HgN/A
7:00 PM81 °FPassing clouds.1 mph84%29.89 "HgN/A
6:30 PM81 °FSprinkles. Passing clouds.7 mph84%29.86 "Hg5 mi
6:00 PM82 °FPassing clouds.2 mph79%29.86 "HgN/A
5:30 PM82 °FThunderstorms. Passing clouds.8 mph79%29.86 "HgN/A
4:30 PM88 °FScattered clouds.8 mph62%29.83 "HgN/A
4:00 PM90 °FScattered clouds.7 mph59%29.83 "HgN/A
3:30 PM91 °FScattered clouds.2 mph52%29.83 "HgN/A
3:00 PM90 °FScattered clouds.3 mph59%29.83 "HgN/A
1:30 PM91 °FPartly sunny.6 mph52%29.83 "HgN/A
1:00 PM91 °FPartly sunny.6 mph56%29.86 "HgN/A
12:00 PM93 °FPartly sunny.1 mph53%29.89 "HgN/A
11:30 AM91 °FPartly sunny.5 mph52%29.89 "HgN/A
11:00 AM90 °FScattered clouds.2 mph55%29.92 "HgN/A
10:30 AM90 °FScattered clouds.3 mph59%29.92 "HgN/A
10:00 AM90 °FPassing clouds.3 mph59%29.92 "HgN/A
9:30 AM88 °FSunny.1 mph62%29.95 "Hg10 mi
9:00 AM86 °FSunny.2 mph66%29.95 "Hg10 mi
8:30 AM84 °FSunny.3 mph70%29.95 "Hg10 mi
8:00 AM84 °FPassing clouds.5 mph70%29.95 "HgN/A
7:30 AM82 °FPassing clouds.5 mph74%29.92 "HgN/A
7:00 AM81 °FSunny.5 mph79%29.92 "Hg10 mi
6:30 AM79 °FPassing clouds.3 mph84%29.92 "HgN/A
6:00 AM79 °FScattered clouds.6 mph84%29.92 "HgN/A
5:00 AM79 °FPassing clouds.3 mph84%29.89 "HgN/A
4:30 AM79 °FPassing clouds.2 mph84%29.89 "HgN/A
3:30 AM79 °FPassing clouds.1 mph79%29.89 "HgN/A
3:00 AM79 °FPassing clouds.3 mph79%29.89 "HgN/A
2:30 AM79 °FPassing clouds.6 mph79%29.89 "HgN/A
2:00 AM79 °FPassing clouds.6 mph79%29.92 "HgN/A
1:30 AM79 °FPassing clouds.3 mph79%29.92 "HgN/A
1:00 AM81 °FPassing clouds.3 mph74%29.92 "HgN/A
Weather by CustomWeather, © 2015

See weather overviewHow to use our weather pages